• In Germany
  • List of Countries
  • For 7 days
  • Water Temperature
  • Satellite Maps
  • Weather Map
  • Weather Widgets
  • user-avatar
    Login

    Hourly Weather Ibagué

    Today, 23 July, Monday

    Time Temperature Precipitation Wind Pressure Humidity
    00:00 +21°C° 0 mm 1 mps 649 mmHg 51%
    01:00 +20°C° 0 mm 1 mps 649 mmHg 51%
    02:00 +20°C° 0 mm 1 mps 649 mmHg 52%
    03:00 +20°C° 0 mm 1 mps 649 mmHg 53%
    04:00 +19°C° 0 mm 1 mps 648 mmHg 54%
    05:00 +20°C° 0 mm 1 mps 649 mmHg 54%
    06:00 +21°C° 0 mm 1 mps 649 mmHg 53%
    07:00 +21°C° 0 mm 1 mps 650 mmHg 53%
    08:00 +23°C° 0 mm 1 mps 650 mmHg 48%
    09:00 +25°C° 0 mm 2 mps 651 mmHg 44%
    10:00 +28°C° 0 mm 2 mps 651 mmHg 40%
    11:00 +29°C° 0 mm 2 mps 651 mmHg 37%
    12:00 +30°C° 0 mm 3 mps 651 mmHg 34%
    13:00 +31°C° 0 mm 3 mps 651 mmHg 31%
    14:00 +31°C° 0 mm 2 mps 650 mmHg 32%
    15:00 +31°C° 0 mm 2 mps 650 mmHg 32%
    16:00 +31°C° 0 mm 2 mps 649 mmHg 32%
    17:00 +28°C° 0.2 mm 2 mps 649 mmHg 39%
    18:00 +25°C° 0.2 mm 2 mps 649 mmHg 46%
    19:00 +23°C° 0.2 mm 2 mps 649 mmHg 53%
    20:00 +22°C° 0.3 mm 1 mps 649 mmHg 52%
    21:00 +22°C° 0.3 mm 1 mps 650 mmHg 52%
    22:00 +21°C° 0.3 mm 1 mps 650 mmHg 52%
    23:00 +21°C° 0.1 mm 1 mps 650 mmHg 52%

    Tomorrow, 24 July, Tuesday

    Time Temperature Precipitation Wind Pressure Humidity
    00:00 +21°C° 0.1 mm 1 mps 650 mmHg 52%
    01:00 +20°C° 0.1 mm 1 mps 650 mmHg 52%
    02:00 +20°C° 0 mm 1 mps 650 mmHg 53%
    03:00 +20°C° 0 mm 1 mps 650 mmHg 55%
    04:00 +20°C° 0 mm 1 mps 649 mmHg 56%
    05:00 +20°C° 0 mm 1 mps 650 mmHg 57%
    06:00 +21°C° 0 mm 1 mps 650 mmHg 59%
    07:00 +21°C° 0 mm 1 mps 650 mmHg 60%
    08:00 +23°C° 0 mm 2 mps 651 mmHg 55%
    09:00 +25°C° 0 mm 2 mps 652 mmHg 51%
    10:00 +26°C° 0 mm 3 mps 653 mmHg 46%
    11:00 +27°C° 0 mm 3 mps 652 mmHg 45%
    12:00 +28°C° 0 mm 3 mps 652 mmHg 44%
    13:00 +28°C° 0 mm 4 mps 652 mmHg 42%
    14:00 +28°C° 0 mm 3 mps 651 mmHg 44%
    15:00 +27°C° 0 mm 3 mps 650 mmHg 46%
    16:00 +27°C° 0 mm 3 mps 650 mmHg 47%
    17:00 +25°C° 0 mm 2 mps 650 mmHg 52%
    18:00 +24°C° 0 mm 2 mps 650 mmHg 56%
    19:00 +22°C° 0 mm 1 mps 650 mmHg 60%
    20:00 +22°C° 0 mm 1 mps 651 mmHg 60%
    21:00 +21°C° 0 mm 1 mps 651 mmHg 60%
    22:00 +21°C° 0 mm 1 mps 652 mmHg 60%
    23:00 +21°C° 0 mm 1 mps 651 mmHg 60%

    Day after tomorrow, 25 July, Wednesday

    Time Temperature Precipitation Wind Pressure Humidity
    00:00 +21°C° 0 mm 1 mps 651 mmHg 61%
    01:00 +20°C° 0 mm 1 mps 651 mmHg 62%
    02:00 +20°C° 0 mm 1 mps 650 mmHg 63%
    03:00 +20°C° 0 mm 1 mps 650 mmHg 64%
    04:00 +19°C° 0 mm 1 mps 649 mmHg 65%
    05:00 +20°C° 0 mm 1 mps 650 mmHg 63%
    06:00 +21°C° 0 mm 1 mps 650 mmHg 61%
    07:00 +21°C° 0 mm 1 mps 651 mmHg 59%
    08:00 +23°C° 0 mm 2 mps 651 mmHg 53%
    09:00 +26°C° 0 mm 3 mps 652 mmHg 47%
    10:00 +28°C° 0 mm 3 mps 653 mmHg 41%
    11:00 +29°C° 0 mm 3 mps 652 mmHg 40%
    12:00 +30°C° 0 mm 3 mps 652 mmHg 39%
    13:00 +30°C° 0 mm 4 mps 652 mmHg 37%
    14:00 +30°C° 0 mm 3 mps 651 mmHg 39%
    15:00 +30°C° 0 mm 3 mps 650 mmHg 40%
    16:00 +29°C° 0 mm 3 mps 650 mmHg 41%
    17:00 +27°C° 0 mm 3 mps 650 mmHg 47%
    18:00 +25°C° 0 mm 2 mps 650 mmHg 54%
    19:00 +23°C° 0 mm 2 mps 650 mmHg 60%
    20:00 +21°C° 0 mm 2 mps 650 mmHg 60%
    21:00 +21°C° 0 mm 2 mps 651 mmHg 60%
    22:00 +21°C° 0 mm 1 mps 651 mmHg 60%
    23:00 +21°C° 0 mm 1 mps 651 mmHg 60%

    26 July, Thursday

    Time Temperature Precipitation Wind Pressure Humidity
    00:00 +21°C° 0 mm 1 mps 651 mmHg 59%
    01:00 +20°C° 0 mm 1 mps 651 mmHg 59%
    02:00 +20°C° 0 mm 1 mps 650 mmHg 60%
    03:00 +20°C° 0 mm 1 mps 650 mmHg 60%
    04:00 +20°C° 0 mm 1 mps 649 mmHg 61%
    05:00 +20°C° 0 mm 1 mps 650 mmHg 60%
    06:00 +21°C° 0 mm 1 mps 650 mmHg 59%
    07:00 +21°C° 0 mm 1 mps 651 mmHg 58%
    08:00 +23°C° 0 mm 2 mps 651 mmHg 53%
    09:00 +25°C° 0 mm 2 mps 652 mmHg 48%
    10:00 +27°C° 0 mm 3 mps 653 mmHg 43%
    11:00 +28°C° 0 mm 3 mps 652 mmHg 42%
    12:00 +29°C° 0 mm 3 mps 652 mmHg 40%
    13:00 +30°C° 0 mm 4 mps 651 mmHg 38%
    14:00 +29°C° 0 mm 4 mps 651 mmHg 40%
    15:00 +29°C° 0 mm 3 mps 650 mmHg 41%
    16:00 +29°C° 0 mm 3 mps 650 mmHg 42%
    17:00 +27°C° 0.1 mm 3 mps 650 mmHg 48%
    18:00 +25°C° 0.1 mm 2 mps 650 mmHg 53%
    19:00 +21°C° 0.1 mm 2 mps 649 mmHg 59%
    20:00 +21°C° 0.1 mm 2 mps 650 mmHg 59%
    21:00 +20°C° 0.1 mm 2 mps 650 mmHg 59%
    22:00 +21°C° 0.1 mm 1 mps 651 mmHg 60%
    23:00 +20°C° 0 mm 1 mps 650 mmHg 60%

    27 July, Friday

    Time Temperature Precipitation Wind Pressure Humidity
    00:00 +20°C° 0 mm 1 mps 650 mmHg 60%
    01:00 +20°C° 0 mm 1 mps 650 mmHg 61%
    02:00 +20°C° 0 mm 1 mps 650 mmHg 61%
    03:00 +20°C° 0 mm 1 mps 649 mmHg 62%
    04:00 +19°C° 0 mm 1 mps 649 mmHg 63%
    05:00 +20°C° 0 mm 1 mps 650 mmHg 61%
    06:00 +20°C° 0 mm 1 mps 650 mmHg 60%
    07:00 +21°C° 0 mm 1 mps 651 mmHg 58%
    08:00 +23°C° 0 mm 2 mps 651 mmHg 52%
    09:00 +25°C° 0 mm 2 mps 652 mmHg 47%
    10:00 +28°C° 0 mm 3 mps 652 mmHg 41%
    11:00 +28°C° 0 mm 3 mps 652 mmHg 39%
    12:00 +29°C° 0 mm 3 mps 652 mmHg 38%
    13:00 +30°C° 0 mm 3 mps 651 mmHg 37%
    14:00 +29°C° 0 mm 4 mps 651 mmHg 39%
    15:00 +29°C° 0 mm 4 mps 650 mmHg 41%
    16:00 +28°C° 0 mm 4 mps 649 mmHg 43%
    17:00 +26°C° 0 mm 3 mps 650 mmHg 49%
    18:00 +24°C° 0 mm 3 mps 650 mmHg 55%
    19:00 +21°C° 0 mm 2 mps 650 mmHg 60%
    20:00 +21°C° 0 mm 2 mps 650 mmHg 59%
    21:00 +21°C° 0 mm 2 mps 651 mmHg 59%
    22:00 +20°C° 0 mm 2 mps 651 mmHg 58%
    23:00 +20°C° 0 mm 2 mps 651 mmHg 58%

    28 July, Saturday

    Time Temperature Precipitation Wind Pressure Humidity
    00:00 +20°C° 0 mm 1 mps 650 mmHg 58%
    01:00 +20°C° 0 mm 1 mps 650 mmHg 57%
    02:00 +20°C° 0 mm 1 mps 650 mmHg 58%
    03:00 +19°C° 0 mm 1 mps 649 mmHg 59%
    04:00 +19°C° 0 mm 1 mps 649 mmHg 59%
    05:00 +20°C° 0 mm 1 mps 649 mmHg 58%
    06:00 +20°C° 0 mm 1 mps 650 mmHg 57%
    07:00 +21°C° 0 mm 1 mps 651 mmHg 56%
    08:00 +23°C° 0 mm 1 mps 651 mmHg 51%
    09:00 +25°C° 0 mm 2 mps 652 mmHg 46%
    10:00 +27°C° 0 mm 2 mps 652 mmHg 40%
    11:00 +28°C° 0 mm 2 mps 652 mmHg 39%
    12:00 +29°C° 0 mm 2 mps 652 mmHg 38%
    13:00 +29°C° 0 mm 2 mps 651 mmHg 37%
    14:00 +29°C° 0 mm 2 mps 650 mmHg 38%
    15:00 +29°C° 0 mm 2 mps 650 mmHg 39%
    16:00 +28°C° 0 mm 2 mps 649 mmHg 41%
    17:00 +26°C° 0 mm 2 mps 649 mmHg 47%
    18:00 +24°C° 0 mm 2 mps 649 mmHg 54%
    19:00 +22°C° 0 mm 1 mps 650 mmHg 60%
    20:00 +22°C° 0.1 mm 1 mps 650 mmHg 61%
    21:00 +21°C° 0.1 mm 1 mps 650 mmHg 63%
    22:00 +21°C° 0.1 mm 1 mps 651 mmHg 64%
    23:00 +20°C° 0.1 mm 1 mps 650 mmHg 64%
    Show more